sat.trackr.live / text

‹ back to catalog

STARLINK-11085 [DTC]

NORAD 59425 · 2024-065E

PAYLOAD ACTIVE UNKNOWN

§ Identity

Operator
Country
US
Launch date
2024-04-07
Launch site
AFWTR
Launch vehicle
Mass (kg)
RCS (m²)

Purposes: comms

External: N2YO · Heavens-Above · Gunter

§ Orbital elements

Epoch: 2026-09-21T02:04:36.585984Z

Period
91.74 min
Inclination
53.1581°
Eccentricity
0.0000755
Mean motion
15.69709308 rev/d
Perigee alt
359.2 km
Apogee alt
360.2 km
Semi-major
6,737.9 km
B*
2.5545e-6
RAAN
210.5563°
Arg perigee
87.9787°
Mean anomaly
272.1318°
Rev number
14,216

§ Raw data

STARLINK-11085 [DTC]1 59425U 24065E   26264.08653456 -.00000279  00000+0  25545-5 0  99932 59425  53.1581 210.5563 0000755  87.9787 272.1318 15.69709308142161

JSON: /api/v1/satellites/59425 · /tle

For live sub-satellite position, see the globe view (requires WebGL).

§ Visibility from observer

Set your observer location to see the next 7 days of passes ≥ 10°. The values pass through the URL so the page stays shareable.

No JS? Fill the form by hand. The geolocation button needs JavaScript.